Location: Friaudour
(46.0460°N, 1.2873°E)
Time: 10:48:45
(UTC+00:00)

Aureole 1 Rocket - Pass Details

Date: 14 July 2020
Orbit: 377 x 1380 km, 73.9° (Epoch: 06 August)

Event Time Altitude Azimuth Distance (km) Brightness Sun altitude
Exits shadow 02:25:54 24° 221° (SW) 1,404 4.3 -14.8°
Maximum altitude 02:28:44 64° 296° (WNW) 851 3.7 -14.5°
Drops below altitude 10° 02:34:47 10° 18° (NNE) 2,687 7.5 -13.9°
Sets 02:37:45 0° 21° (NNE) 3,809 8.7 -13.6°
